FW2487 Weather Reports


Display with metric or nautical units.
time (UTC)temp
F
wind
direction
speed
MPH
gust
MPH
rain 1hr
in
rain 24hr
in
rain mn
in
humidity
%
barometer
mb
20260504174536 77 27 4.0 7.0 0.00 0.00 0.00 45 1010.6
20260504173035 76 55 4.0 6.0 0.00 0.00 0.00 45 1010.6
20260504171606 75 35 3.0 5.0 0.00 0.00 0.00 45 1010.6
20260504130110 46 165 3.0 5.0 0.00 0.00 0.00 88 1010.1
20260504090104 49 169 3.0 4.0 0.00 0.00 0.00 79 1010.5
20260504081641 50 157 3.0 5.0 0.00 0.00 0.00 76 1010.7
20260504044641 61 201 2.0 5.0 0.00 0.00 0.00 58 1010.3
20260504043142 62 160 4.0 6.0 0.00 0.00 0.00 58 1010.1
20260504041535 63 157 4.0 6.0 0.00 0.00 0.00 57 1009.9
20260504040037 63 131 1.0 5.0 0.00 0.00 0.00 56 1009.7
20260504034533 65 147 2.0 4.0 0.00 0.00 0.00 54 1009.5
20260504033037 67 180 2.0 4.0 0.00 0.00 0.00 53 1009.2
20260504030036 72 228 1.0 4.0 0.00 0.00 0.00 50 1009.0
20260504024536 75 247 0.0 2.0 0.00 0.00 0.00 46 1008.9
20260504023109 78 278 1.0 2.0 0.00 0.00 0.00 37 1008.8
20260504021606 79 8 2.0 4.0 0.00 0.00 0.00 35 1009.0
20260504020036 80 15 4.0 7.0 0.00 0.00 0.00 33 1009.1
20260504014532 80 343 4.0 8.0 0.00 0.00 0.00 32 1009.2
20260504013033 81 332 3.0 7.0 0.00 0.00 0.00 31 1009.3
20260504011537 83 345 4.0 7.0 0.00 0.00 0.00 31 1009.5
20260504001610 83 4 5.0 11.0 0.00 0.00 0.00 30 1010.0
20260504000036 84 28 6.0 11.0 0.00 0.00 0.00 30 1010.1
20260503234535 83 29 6.0 11.0 0.00 0.00 0.00 30 1010.2
20260503233037 84 14 7.0 11.0 0.00 0.00 0.00 29 1010.3
20260503231535 85 33 5.0 11.0 0.00 0.00 0.00 28 1010.6
20260503230106 84 54 6.0 13.0 0.00 0.00 0.00 29 1010.8
20260503224534 84 30 7.0 14.0 0.00 0.00 0.00 30 1011.0
20260503223036 85 47 6.0 11.0 0.00 0.00 0.00 30 1011.3
20260503221534 84 35 7.0 11.0 0.00 0.00 0.00 30 1011.5
20260503220036 84 72 4.0 10.0 0.00 0.00 0.00 29 1011.7
20260503214535 84 45 7.0 12.0 0.00 0.00 0.00 31 1011.8
20260503213035 83 48 7.0 14.0 0.00 0.00 0.00 31 1012.0
20260503211534 83 44 10.0 17.0 0.00 0.00 0.00 31 1012.2
20260503210111 83 49 10.0 18.0 0.00 0.00 0.00 31 1012.5
20260503204535 82 42 10.0 18.0 0.00 0.00 0.00 31 1012.6
20260503203115 83 55 7.0 16.0 0.00 0.00 0.00 29 1012.7
20260503201643 83 78 5.0 12.0 0.00 0.00 0.00 28 1012.9
20260503200036 83 89 4.0 10.0 0.00 0.00 0.00 28 1013.1
20260503194530 82 106 3.0 8.0 0.00 0.00 0.00 29 1013.3
20260503193032 82 104 4.0 11.0 0.00 0.00 0.00 29 1013.3
20260503191535 82 73 6.0 12.0 0.00 0.00 0.00 30 1013.4
20260503190034 81 87 5.0 10.0 0.00 0.00 0.00 32 1013.5
20260503184535 79 79 1.0 8.0 0.00 0.00 0.00 37 1013.7
20260503183034 77 315 2.0 7.0 0.00 0.00 0.00 42 1013.8
20260503181535 76 333 3.0 7.0 0.00 0.00 0.00 44 1013.9
20260503180036 76 334 2.0 6.0 0.00 0.00 0.00 45 1014.1